Regional Weather Roundup
Issued by NWS

Home | Current Version | Previous Version | Graphics & Text | Print | Product List | Glossary On
Versions: 1 2 3 4 5 6 7 8 9 10 11 12 13 14 15 16 17 18 19 20 21 22 23 24 25 26 27 28 29 30 31 32 33 34 35 36 37 38 39 40 41 42 43 44 45 46 47 48 49 50
000
ASUS43 KIND 220309
RWRIN

WEATHER ROUNDUP FOR INDIANA
NATIONAL WEATHER SERVICE INDIANAPOLIS IN
1100 PM EDT TUE MAR 21 2017

NOTE: "FAIR" INDICATES FEW OR NO CLOUDS BELOW 12,000 FEET WITH NO
SIGNIFICANT WEATHER AND/OR OBSTRUCTIONS TO VISIBILITY.

* - STATION DOES NOT REPORT WEATHER SUCH AS PRECIPITATION OR FOG.

+ - STATION NOT QUALITY CONTROLLED BY THE NATIONAL WEATHER SERVICE.
    USE DATA WITH CAUTION...ESPECIALLY DEWPOINT AND RELATIVE
    HUMIDITY OBSERVATIONS.

INZ001>003-010>013-019-020-220400-
NORTHWEST INDIANA

CITY           SKY/WX    TMP DP  RH WIND       PRES   REMARKS
GARY /AIRPORT/ MOCLDY    36  27  69 N14       30.35R
KNOX *+        CLEAR     30  10  43 N7        30.30R WCI  23
LA PORTE +     CLEAR     33  25  73 N14       30.31R WCI  23
MICHIGAN CITY+ PTCLDY    34  28  80 N17G23    30.33R WCI  23
MONTICELLO +   CLEAR     34  25  70 N8        30.28R WCI  27
RENSSELAER +   CLEAR     32  28  86 N8        30.31R WCI  25
VALPARAISO     CLEAR     34  26  72 N12       30.32R WCI  25

$$

LMZ046-743>745-220400-
SOUTHERN LAKE MICHIGAN

STATION/POSITION TIME  TEMP    WIND        PRES    WAVE
                       AIR SEA DIR/SP/G            HT
                 (UTC) (F)     (DEG/KT/KT) (MB)    (FT)
BURNS HARBOR     0259   35      10/ 20/ 25 1027.1R
MICHIGAN CITY    0240   35     360/ 25/ 28   N/A

$$

INZ004-005-014>016-021>024-220400-
NORTH CENTRAL INDIANA

CITY           SKY/WX    TMP DP  RH WIND       PRES   REMARKS
GOSHEN         CLEAR     33  19  56 N7        30.27R WCI  27
LOGANSPORT +   CLEAR     32  27  80 N8        30.28R WCI  25
PERU/GRISSOM   CLEAR     35  24  63 N10       30.25R WCI  28
ROCHESTER +    CLEAR     36  25  64 N7        30.28R
SOUTH BEND     CLEAR     31  22  69 N12       30.30R WCI  22
WARSAW +       CLEAR     32  21  64 N3        30.26R

$$

INZ006>009-017-018-025>027-220400-
NORTHEAST INDIANA

CITY           SKY/WX    TMP DP  RH WIND       PRES   REMARKS
ANGOLA *+      CLEAR     34  19  55 N6        30.25R WCI  29
AUBURN +       CLEAR     34  19  55 N9        30.25R WCI  26
FORT WAYNE     CLEAR     36  22  56 N16G22    30.25R
HUNTINGTON +   CLEAR     35  22  59 N8        30.25R WCI  28
KENDALLVILLE + CLEAR     33  19  55 N12G17    30.25R WCI  25

$$

INZ028-029-035-036-043>045-051>053-220400-
WEST CENTRAL INDIANA

CITY           SKY/WX    TMP DP  RH WIND       PRES   REMARKS
CRAWFORDSVL +  PTCLDY    37  29  72 N10G16    30.26R
GREENCASTLE +  PTCLDY    41  28  60 N14       30.24R
LAFAYETTE      CLEAR     35  27  72 N9        30.28R WCI  28
TERRE HAUTE    PTCLDY    45  36  70 N7        30.24R

$$

INZ030>032-037>040-046>048-054>057-064-065-220400-
CENTRAL INDIANA

CITY           SKY/WX    TMP DP  RH WIND       PRES   REMARKS
CP ATTERBURY + CLEAR     45  32  61 N9        30.22R
FISHERS *+     CLEAR     37  30  75 N7        30.25R
FRANKFORT +    CLEAR     39  30  69 N10G17    30.27R
GREENWOOD *+   CLOUDY    43  28  54 N17       30.23R
INDIANAPOLIS   PTCLDY    42  26  53 N14       30.23R
-EAGLE CREEK   PTCLDY    41  26  55 N12       30.24R
KOKOMO +       CLEAR     36  26  67 N12       30.27R
MARION +       CLEAR     36  25  64 N9        30.25R HAZE
MT COMFORT *+  CLOUDY    37  28  70 N12       30.24R
SHELBYVILLE    PTCLDY    43  29  57 N13G22    30.22R
ZIONSVILLE +   CLEAR     37  29  73 N10       30.25R

$$

INZ033-034-041-042-049-050-058-059-220400-
EAST CENTRAL INDIANA

CITY           SKY/WX    TMP DP  RH WIND       PRES   REMARKS
MUNCIE         CLEAR     38  27  64 N13       30.23R
RICHMOND +     PTCLDY    37  27  65 N13G22    30.21R

$$

INZ060-061-067>069-081>083-085>088-220400-
SOUTHWEST INDIANA

CITY           SKY/WX    TMP DP  RH WIND       PRES   REMARKS
EVANSVILLE     CLEAR     51  34  52 N10       30.20R
HUNTINGBURG *+ CLEAR     49  33  54 N5        30.19R
WASHINGTON +   PTCLDY    48  32  52 CALM      30.21R

$$

INZ062-063-066-070>080-084-089>092-220400-
SOUTH CENTRAL AND SOUTHEAST INDIANA

CITY           SKY/WX    TMP DP  RH WIND       PRES   REMARKS
BEDFORD +      PTCLDY    50  27  40 N8        30.19R
BLOOMINGTON    PTCLDY    45  33  63 N10       30.21R
MADISON *+     PTCLDY    46  30  53 N6        30.20R
NORTH VERNON + PTCLDY    48  32  53 N8        30.19R
SEYMOUR +      PTCLDY    48  32  53 N10       30.20R

$$





USA.gov is the U.S. government's official web portal to all federal, state and local government web resources and services.